Flag for Poland Weather past 2 weeks in Kalisz, Poland

Now
61 °F

Overcast.


Feels Like: 61 °F
Forecast: 49 / 70 °F
Wind: 2 mph from Southeast

Location: Kalisz

Current Time: Sep 4, 2015 at 4:01:52 AM

Latest Report: Sep 4, 2015 at 3:00 AM


Visibility: 19 mi

Pressure: 29.90 "Hg

Humidity: 69%

Dew point: 51 °F

Location of KaliszLocation

Historic Weather in Kalisz — Graph

°F

Kalisz temperature yesterday

Maximum temperature yesterday: 72 °F (at 4:00 PM)
Minimum temperature yesterday: 57 °F (at 3:00 AM)
Average temperature yesterday: 64 °F

Past Weeks' High & Low Weather Summary

 TemperatureHumidityPressure
High96 °F (Aug 31, 4:00 PM)99% (Aug 29, 7:00 AM)30.34 "Hg (Aug 29, 7:00 AM)
Low53 °F (Aug 20, 6:00 AM)24% (Aug 27, 4:00 PM)29.67 "Hg (Sep 1, 7:00 PM)
Average70 °F55%30.04 "Hg
* Reported Aug 20 2:00 AM — Sep 4 2:00 AM, Kalisz, Weather by CustomWeather, © 2015

Note: Actual official high and low records may vary slightly from our data, if they occured in-between our weather recording intervals... More about our weather records

Advertising

Kalisz weather history for previous 24 hours

 ConditionsComfort  
Time TempWeatherWind HumidityBarometerVisibility
2:00 AM
Fri, Sep 4
61 °FOvercast.2 mph68%29.90 "Hg19 mi
1:00 AM62 °FOvercast.2 mph65%29.92 "Hg22 mi
12:00 AM62 °FOvercast.2 mph63%29.93 "Hg22 mi
11:00 PM
Thu, Sep 3
62 °FOvercast.3 mph62%29.93 "Hg17 mi
10:00 PM63 °FOvercast.3 mph57%29.93 "Hg17 mi
9:00 PM64 °FOvercast.3 mph53%29.94 "Hg17 mi
8:00 PM67 °FOvercast.3 mph47%29.93 "Hg19 mi
7:00 PM69 °FOvercast.2 mph42%29.93 "Hg28 mi
6:00 PM71 °FOvercast.2 mph38%29.93 "Hg31 mi
5:00 PM71 °FPartly sunny.2 mph39%29.94 "Hg25 mi
4:00 PM72 °FPartly sunny.2 mph36%29.95 "Hg25 mi
3:00 PM72 °FPartly sunny.2 mph38%29.95 "Hg25 mi
2:00 PM71 °FPartly sunny.2 mph40%29.97 "Hg25 mi
1:00 PM70 °FOvercast.1 mph39%29.98 "Hg22 mi
12:00 PM69 °FOvercast.1 mph46%29.99 "Hg22 mi
11:00 AM68 °FOvercast.2 mph43%30.00 "Hg25 mi
10:00 AM66 °FOvercast.2 mph53%30.01 "Hg25 mi
9:00 AM63 °FOvercast.2 mph64%30.02 "Hg19 mi
8:00 AM61 °FPartly sunny.2 mph68%30.01 "Hg19 mi
7:00 AM58 °FPartly sunny.2 mph71%30.01 "Hg22 mi
6:00 AM57 °FOvercast.1 mph73%30.02 "Hg15 mi
5:00 AM57 °FOvercast.2 mph74%30.01 "Hg15 mi
4:00 AM57 °FOvercast.1 mph74%30.01 "Hg14 mi
Weather by CustomWeather, © 2015

See weather overviewHow to use our weather pages